SPACEMOBILE-009

Last updated on Sat Aug 15 2026 00:02:08 GMT+0000 (Coordinated Universal Time)

1 69590U 26139B 26226.61217725 .00000328 00000+0 35471-4 0 9995 2 69590 52.9958 357.3356 0005223 126.8966 233.2504 15.12783783 8823
UTC large
Height (km)
Speed (km/s)
/
Latitude / Longitude
Inclination (degrees)
Orbital Period (minutes)
Azimuth
Elevation
Range (km)
Doppler Factor

Next 0 passes for location: London (51.5072 / 0.1276)

No passes found over London.
SPACEMOBILE-009